TimeCST,TemperatureF,Dew PointF,Humidity,Sea Level PressureIn,VisibilityMPH,Wind Direction,Wind SpeedMPH,Gust SpeedMPH,PrecipitationIn,Events,Conditions,WindDirDegrees,DateUTC
12:14 AM,1.4,-2.2,85,30.04,10.0,Calm,Calm,-,N/A,,Clear,0,2013-01-05 06:14:00
12:33 AM,-0.4,-5.8,78,30.03,7.0,Calm,Calm,-,N/A,,Mostly Cloudy,0,2013-01-05 06:33:00
12:54 AM,-0.4,-4.0,85,30.03,4.0,Calm,Calm,-,N/A,,Mostly Cloudy,0,2013-01-05 06:54:00
1:14 AM,-2.2,-7.6,78,30.02,7.0,Calm,Calm,-,N/A,,Scattered Clouds,0,2013-01-05 07:14:00
1:34 AM,-0.4,-5.8,78,30.02,7.0,Calm,Calm,-,N/A,,Mostly Cloudy,0,2013-01-05 07:34:00
1:54 AM,-2.2,-7.6,78,30.02,7.0,Calm,Calm,-,N/A,,Mostly Cloudy,0,2013-01-05 07:54:00
2:14 AM,-2.2,-7.6,78,30.02,10.0,Calm,Calm,-,N/A,,Scattered Clouds,0,2013-01-05 08:14:00
2:34 AM,-4.0,-7.6,85,30.02,10.0,Calm,Calm,-,N/A,,Clear,0,2013-01-05 08:34:00
2:54 AM,-2.2,-7.6,78,30.02,10.0,Calm,Calm,-,N/A,,Clear,0,2013-01-05 08:54:00
3:14 AM,-2.2,-7.6,78,30.01,10.0,Calm,Calm,-,N/A,,Clear,0,2013-01-05 09:14:00
3:34 AM,-2.2,-7.6,78,30.01,10.0,Calm,Calm,-,N/A,,Clear,0,2013-01-05 09:34:00
3:54 AM,-2.2,-7.6,78,30.01,10.0,Calm,Calm,-,N/A,,Clear,0,2013-01-05 09:54:00
4:14 AM,-2.2,-7.6,78,30.00,10.0,Calm,Calm,-,N/A,,Clear,0,2013-01-05 10:14:00
4:34 AM,-2.2,-7.6,78,29.99,10.0,Calm,Calm,-,N/A,,Clear,0,2013-01-05 10:34:00
4:54 AM,-2.2,-7.6,78,29.98,10.0,Calm,Calm,-,N/A,,Clear,0,2013-01-05 10:54:00
5:14 AM,-2.2,-7.6,78,29.98,10.0,Calm,Calm,-,N/A,,Clear,0,2013-01-05 11:14:00
5:34 AM,-2.2,-7.6,78,29.98,7.0,Calm,Calm,-,N/A,,Scattered Clouds,0,2013-01-05 11:34:00
5:54 AM,-2.2,-7.6,78,29.98,10.0,Calm,Calm,-,N/A,,Mostly Cloudy,0,2013-01-05 11:54:00
6:14 AM,-2.2,-7.6,78,29.98,10.0,Calm,Calm,-,N/A,,Overcast,0,2013-01-05 12:14:00
6:34 AM,-2.2,-7.6,78,29.98,10.0,Calm,Calm,-,N/A,,Overcast,0,2013-01-05 12:34:00
6:54 AM,-2.2,-5.8,85,29.96,10.0,Calm,Calm,-,N/A,,Overcast,0,2013-01-05 12:54:00
7:13 AM,-2.2,-5.8,85,29.97,4.0,Calm,Calm,-,N/A,,Overcast,0,2013-01-05 13:13:00
7:34 AM,-0.4,-5.8,78,29.97,1.5,Calm,Calm,-,N/A,,Haze,0,2013-01-05 13:34:00
7:54 AM,-2.2,-5.8,85,29.98,0.2,Calm,Calm,-,N/A,Fog,Light Freezing Fog,0,2013-01-05 13:54:00
8:14 AM,-0.4,-5.8,78,29.99,3.0,North,3.5,-,N/A,,Haze,350,2013-01-05 14:14:00
8:34 AM,-0.4,-5.8,78,29.99,1.2,Calm,Calm,-,N/A,,Haze,0,2013-01-05 14:34:00
8:54 AM,1.4,-2.2,85,29.99,7.0,Calm,Calm,-,N/A,,Overcast,0,2013-01-05 14:54:00
9:14 AM,1.4,-2.2,85,29.99,10.0,Calm,Calm,-,N/A,,Overcast,0,2013-01-05 15:14:00
9:54 AM,3.2,-0.4,85,29.99,7.0,Calm,Calm,-,N/A,Snow,Light Snow,0,2013-01-05 15:54:00
10:14 AM,5.0,1.4,85,29.98,4.0,Calm,Calm,-,N/A,Snow,Light Snow,0,2013-01-05 16:14:00
10:54 AM,6.8,3.2,85,29.98,2.0,Calm,Calm,-,N/A,Snow,Light Snow,0,2013-01-05 16:54:00
11:14 AM,8.6,3.2,79,29.99,5.0,Calm,Calm,-,N/A,Snow,Light Snow,0,2013-01-05 17:14:00
11:34 AM,8.6,5.0,85,29.99,3.0,Calm,Calm,-,N/A,Snow,Light Snow,0,2013-01-05 17:34:00
11:54 AM,10.4,6.8,85,29.98,10.0,Calm,Calm,-,N/A,,Overcast,0,2013-01-05 17:54:00
12:14 PM,10.4,8.6,92,29.98,10.0,Calm,Calm,-,N/A,,Scattered Clouds,0,2013-01-05 18:14:00
12:34 PM,12.2,8.6,85,29.97,10.0,Calm,Calm,-,N/A,,Clear,0,2013-01-05 18:34:00
12:54 PM,14.0,10.4,86,29.96,10.0,Calm,Calm,-,N/A,,Clear,0,2013-01-05 18:54:00
1:14 PM,15.8,12.2,86,29.96,10.0,Calm,Calm,-,N/A,,Clear,0,2013-01-05 19:14:00
1:34 PM,15.8,12.2,86,29.95,10.0,Calm,Calm,-,N/A,,Clear,0,2013-01-05 19:34:00
1:54 PM,17.6,12.2,79,29.94,10.0,Calm,Calm,-,N/A,,Clear,0,2013-01-05 19:54:00
2:14 PM,17.6,12.2,79,29.95,10.0,Calm,Calm,-,N/A,,Clear,0,2013-01-05 20:14:00
2:34 PM,17.6,14.0,86,29.96,10.0,Calm,Calm,-,N/A,,Clear,0,2013-01-05 20:34:00
2:54 PM,15.8,12.2,86,29.97,10.0,WNW,8.1,-,N/A,,Clear,300,2013-01-05 20:54:00
3:14 PM,17.6,12.2,79,29.97,10.0,WNW,5.8,-,N/A,,Clear,300,2013-01-05 21:14:00
3:33 PM,17.6,12.2,79,29.97,10.0,WNW,5.8,-,N/A,,Clear,300,2013-01-05 21:33:00
3:54 PM,17.6,10.4,73,29.98,10.0,WNW,3.5,-,N/A,,Clear,290,2013-01-05 21:54:00
4:14 PM,17.6,8.6,68,29.98,10.0,WNW,4.6,-,N/A,,Scattered Clouds,290,2013-01-05 22:14:00
4:54 PM,15.8,6.8,68,29.99,10.0,WNW,5.8,-,N/A,,Clear,290,2013-01-05 22:54:00
5:14 PM,14.0,6.8,73,29.98,10.0,West,4.6,-,N/A,,Clear,280,2013-01-05 23:14:00
5:33 PM,12.2,6.8,79,29.98,10.0,WNW,5.8,-,N/A,,Clear,290,2013-01-05 23:33:00
5:54 PM,12.2,6.8,79,29.99,10.0,WNW,6.9,-,N/A,,Clear,290,2013-01-05 23:54:00
6:14 PM,12.2,6.8,79,30.01,10.0,WNW,8.1,-,N/A,,Clear,290,2013-01-06 00:14:00
6:33 PM,12.2,6.8,79,30.02,10.0,WNW,6.9,-,N/A,,Clear,290,2013-01-06 00:33:00
6:54 PM,10.4,6.8,85,30.02,10.0,West,5.8,-,N/A,,Clear,280,2013-01-06 00:54:00
7:14 PM,10.4,6.8,85,30.02,10.0,West,4.6,-,N/A,,Clear,280,2013-01-06 01:14:00
7:54 PM,10.4,3.2,73,30.03,10.0,WNW,8.1,-,N/A,,Clear,300,2013-01-06 01:54:00
8:14 PM,8.6,1.4,73,30.03,10.0,WNW,8.1,-,N/A,,Clear,300,2013-01-06 02:14:00
8:34 PM,8.6,1.4,73,30.03,10.0,NW,8.1,-,N/A,,Clear,310,2013-01-06 02:34:00
8:54 PM,8.6,1.4,73,30.03,10.0,NW,6.9,-,N/A,,Clear,310,2013-01-06 02:54:00
9:14 PM,8.6,-0.4,67,30.04,10.0,WNW,6.9,-,N/A,,Clear,290,2013-01-06 03:14:00
9:34 PM,8.6,1.4,73,30.03,10.0,Calm,Calm,-,N/A,,Scattered Clouds,0,2013-01-06 03:34:00
9:54 PM,8.6,1.4,73,30.02,10.0,Calm,Calm,-,N/A,,Scattered Clouds,0,2013-01-06 03:54:00
10:14 PM,8.6,1.4,73,30.03,10.0,West,3.5,-,N/A,,Scattered Clouds,260,2013-01-06 04:14:00
10:34 PM,8.6,1.4,73,30.03,10.0,West,4.6,-,N/A,,Scattered Clouds,270,2013-01-06 04:34:00
10:54 PM,8.6,1.4,73,30.03,10.0,West,3.5,-,N/A,,Scattered Clouds,260,2013-01-06 04:54:00
11:14 PM,8.6,1.4,73,30.04,10.0,West,3.5,-,N/A,,Scattered Clouds,270,2013-01-06 05:14:00
11:34 PM,8.6,1.4,73,30.05,10.0,West,3.5,-,N/A,,Mostly Cloudy,270,2013-01-06 05:34:00
11:54 PM,6.8,1.4,79,30.05,10.0,West,3.5,-,N/A,,Scattered Clouds,270,2013-01-06 05:54:00